Location: Darlington Observatory
(36.4817°N, 105.8156°W)
Time: 20:36:29
(UTC-06:00)

Daily predictions for brighter satellites

Satellite Brightness Start Highest point End
(mag) Time Altitude Azimuth Time Altitude Azimuth Time Altitude Azimuth
Cosmos 1602 3.8 20:01:06 10° S 20:05:03 84° E 20:09:01 10° N
NOSS 2-1 (E) 3.5 20:04:01 10° SSW 20:07:44 48° ESE 20:11:47 10° NE
Delta 2 Rocket 4.0 20:06:53 10° W 20:12:35 83° S 20:17:44 10° E
Cosmos 1315 Rocket 2.8 20:10:15 10° S 20:14:12 82° E 20:18:15 10° N
Cosmos 1544 Rocket 4.1 20:10:19 10° SSE 20:14:19 37° E 20:18:23 10° NNE
Okean 1 Rocket 4.3 20:10:26 10° SSW 20:14:40 48° W 20:18:53 10° N
Cosmos 1400 Rocket 3.9 20:10:55 10° SSW 20:14:56 52° W 20:18:57 10° N
HJ-1C 4.1 20:13:14 10° S 20:16:27 56° W 20:19:42 10° NNW
Cosmos 2219 3.2 20:12:32 10° NNW 20:18:10 77° ENE 20:23:46 10° SSE
ATLAS CENTAUR R/B 3.6 20:19:09 10° WSW 20:23:48 37° NW 20:28:25 10° NNE
Meteor 2-4 Rocket 3.8 20:22:27 10° N 20:28:17 69° E 20:34:10 10° SSE
Cosmos 1821 Rocket 3.9 20:25:27 10° S 20:31:32 74° E 20:37:37 10° N
ALOS 2.2 20:27:48 10° SSE 20:32:26 75° ENE 20:37:07 10° N
Cosmos 2278 4.0 20:28:15 10° S 20:33:33 43° ESE 20:38:54 10° NE
Cosmos 1605 Rocket 4.4 20:28:25 10° SSE 20:34:23 44° E 20:40:18 10° NNE
H-2A R/B 2.7 20:31:37 10° SSE 20:35:24 65° ENE 20:39:17 10° N
Cosmos 1697 Rocket 4.2 20:35:31 14° ESE 20:36:38 15° E 20:39:40 10° ENE
Lacrosse 5 4.3 20:38:03 10° NNE 20:38:39 10° NNE 20:39:15 10° NNE
Cosmos 1570 Rocket 4.0 20:36:19 10° S 20:41:33 64° ESE 20:46:47 10° NNE
Meteor 1-23 Rocket 4.2 20:37:13 10° N 20:42:53 85° E 20:48:35 10° S
Cosmos 2369 3.9 20:40:39 10° S 20:46:03 49° ESE 20:51:31 10° NNE
Meteor 2-16 Rocket 4.4 20:40:41 10° S 20:46:45 80° E 20:52:50 10° N
NOSS 3-4 (A) 4.1 20:41:23 10° NNW 20:48:15 53° NE 20:53:39 18° SE
NOSS 3-4 (C) 4.1 20:41:30 10° NNW 20:48:22 52° NE 20:53:44 19° ESE
CZ-2D R/B 3.4 20:44:48 10° S 20:48:38 75° WSW 20:52:31 10° NNW
NOSS 7 (D) 4.3 20:46:02 10° SSW 20:49:36 63° ESE 20:52:55 10° NE
Envisat 3.9 20:48:14 19° ESE 20:50:51 29° ENE 20:55:12 10° N
DELTA 2 R/B (1) 3.9 20:49:10 10° W 20:54:42 63° N 20:59:12 16° ENE
Hubble Space Telescope 2.1 20:52:03 10° WSW 20:55:30 25° S 20:57:00 20° SSE
Cosmos 1346 Rocket 2.7 20:56:51 10° N 21:00:47 74° E 21:03:28 20° SSE
CZ-4 DEB 2.8 21:03:00 40° SE 21:03:46 53° ENE 21:06:51 10° N
Cosmos 2123 Rocket 3.9 20:58:57 10° N 21:05:10 82° E 21:11:20 10° S
H-2A R/B 2.9 21:09:24 28° E 21:09:48 28° ENE 21:13:20 10° N
deb Chang Zheng 4 4.1 21:08:16 10° NNE 21:12:27 39° E 21:13:18 35° SE
Tiangong 1 2.8 21:12:55 10° WNW 21:15:39 28° N 21:17:05 19° NE
Cosmos 1626 Rocket 3.6 21:12:37 10° N 21:16:59 58° E 21:18:20 39° SE
Cosmos 1455 Rocket 3.9 21:14:19 10° SSW 21:18:30 49° W 21:22:43 10° N
Iridium 4 Rocket 3.3 21:14:29 10° N 21:19:40 68° E 21:22:00 30° SSE
SL-24 R/B - RUBIN 2 4.3 21:17:21 10° S 21:22:50 55° ESE 21:29:00 10° NE
Cosmos 1459 Rocket 4.3 21:20:57 32° SE 21:22:53 41° E 21:28:30 10° NNE
USA 186 4.0 21:21:34 10° SSW 21:24:14 24° W 21:26:47 10° NW
Cosmos 1500 3.5 21:24:58 46° ENE 21:24:58 46° ENE 21:28:07 10° NNE
Cosmos 1602 Rocket 3.5 21:20:02 10° N 21:24:31 73° E 21:25:54 43° SSE
Cosmos 2227 Rocket 2.1 21:20:19 10° NNW 21:26:00 76° ENE 21:28:22 36° SSE
Cosmos 1153 Rocket 4.4 21:22:17 10° S 21:28:31 84° E 21:34:43 10° N
ERS-1 Rocket 2.9 21:27:20 28° S 21:30:02 84° WSW 21:35:06 10° NNW
Cosmos 1898 Rocket 4.2 21:25:10 10° N 21:30:04 36° ENE 21:30:40 35° E
OTV 4 1.2 21:28:36 10° WNW 21:31:01 51° NW 21:31:01 51° NW
Nimbus 7 Rocket 4.3 21:30:26 10° NNE 21:36:29 70° ESE 21:41:00 19° S
OAO 2 Rocket 3.3 21:31:42 10° WSW 21:36:41 58° SSE 21:37:16 54° SE
Cosmos 1975 3.3 21:35:02 20° SSW 21:37:45 62° W 21:41:50 10° N
Cosmos 2082 3.6 21:32:13 10° NNW 21:37:51 89° NE 21:39:48 43° SSE
Cosmos 1802 Rocket 4.2 21:38:54 42° SE 21:40:25 50° E 21:46:35 10° NNE
Cosmos 1656 3.5 21:35:38 10° SSW 21:41:17 82° ESE 21:46:53 10° NNE
Cosmos 2297 Rocket 2.1 21:36:22 10° NNW 21:42:02 74° ENE 21:43:24 52° SE
Cosmos 1461 2.7 21:38:53 10° NNW 21:42:47 81° N 21:42:47 81° N
Cosmos 1515 3.9 21:44:57 10° N 21:48:28 70° NW 21:48:28 70° NW
Centaur AC-125 4.2 21:33:57 10° W 21:50:46 40° SSW 21:51:56 36° S
Cosmos 468 Rocket 3.8 21:49:56 59° S 21:50:51 77° ESE 21:55:59 10° NNE
Cosmos 1743 4.4 21:54:40 26° NNE 21:54:40 26° NNE 21:56:31 10° NNE
Lacrosse 5 rocket 2.4 21:50:38 10° NNW 21:53:07 34° N 21:53:07 34° N
Delta 2 Rocket 3.8 21:50:04 10° W 21:55:17 64° SSW 21:55:17 64° SSW
BREEZE-M DEB (TANK) 4.0 21:39:50 10° WSW 21:55:29 75° NNW 21:58:28 25° NE
Cosmos 1814 Rocket 3.9 21:56:38 73° ESE 21:56:47 73° ESE 22:02:06 10° NNE
Cosmos 220 Rocket 4.3 21:57:43 10° NNW 22:01:26 63° WNW 22:01:26 63° WNW
Cosmos 2016 Rocket 3.8 22:03:49 65° ESE 22:04:03 65° E 22:10:09 10° NNE
Cosmos 1939 Rocket 4.3 22:05:19 32° WSW 22:05:57 34° W 22:09:44 10° NNW
YAOGAN 6 4.3 22:09:19 30° NNW 22:09:19 30° NNW 22:11:17 10° NNW
Cosmos 1066 Rocket 4.3 22:04:09 10° NNW 22:09:47 73° W 22:10:45 60° SSW
Cosmos 2298 Rocket 4.0 22:08:45 10° NNW 22:14:01 79° W 22:14:01 79° W
USA 215 3.8 22:13:51 41° ENE 22:15:11 45° NE 22:21:20 10° NNW
Cosmos 2173 Rocket 4.2 22:14:43 38° SSW 22:17:16 71° W 22:23:38 10° N
MetOp-A 4.2 22:18:08 69° WSW 22:18:19 70° WSW 22:23:40 10° NNW
Cosmos 2061 Rocket 4.2 22:16:56 38° SSW 22:19:25 68° W 22:25:41 10° N
Cosmos 1697 Rocket 3.0 22:17:00 28° SW 22:19:57 64° WNW 22:25:34 10° NNE
H-2A R/B 3.4 22:21:51 27° NNE 22:21:51 27° NNE 22:24:33 10° N
SPOT 5 3.5 22:22:12 54° WSW 22:22:20 54° W 22:27:14 10° NNW
GEOS 3 Rocket 3.7 22:17:46 10° NNE 22:22:21 68° N 22:22:21 68° N
Lacrosse 5 3.0 22:18:18 10° NNW 22:22:12 34° NNE 22:22:12 34° NNE
Cosmos 2098 Rocket 4.1 22:23:40 71° E 22:23:43 71° E 22:30:09 10° NNE
BREEZE-M DEB (TANK) 4.3 22:22:12 10° NW 22:23:22 24° NNW 22:23:22 24° NNW
NOAA 11 4.3 22:26:06 67° N 22:26:06 67° N 22:30:53 10° N
Tsikada Rocket 4.4 22:24:10 10° N 22:29:34 53° NE 22:29:34 53° NE
USA 245 4.5 22:33:48 73° W 22:33:48 73° W 22:40:06 10° NNW
SPOT 1/Viking Rocket 4.1 22:39:38 55° NW 22:39:38 55° NW 22:43:49 10° NNW
RESURS DK-1 4.5 22:34:32 10° NNW 22:36:17 24° NNW 22:36:17 24° NNW
Cosmos 1937 Rocket 4.2 22:34:31 10° NNW 22:38:37 53° NW 22:38:37 53° NW
Cosmos 1980 Rocket 2.8 22:42:25 53° N 22:42:25 53° N 22:46:49 10° NNE
DELTA 2 R/B (1) 4.2 22:35:50 10° WNW 22:39:58 51° WNW 22:39:58 51° WNW
H-2A R/B 4.4 22:46:32 18° W 22:46:32 18° W 22:48:45 10° NW
ARGOS 3.9 22:49:44 50° NW 22:49:44 50° NW 22:53:55 10° NNW
Cosmos 1725 Rocket 4.4 23:01:43 57° NW 23:01:43 57° NW 23:06:58 10° N
Milstar 3 Cent rocket 4.0 22:53:20 10° W 23:06:58 48° SSW 23:06:58 48° SSW
Cosmos 2322 Rocket 4.3 23:15:26 18° NNE 23:15:26 18° NNE 23:16:51 10° NNE
Terra 3.9 23:14:41 24° NNW 23:14:41 24° NNW 23:16:31 10° NNW
Cosmos 2263 Rocket 4.1 23:10:25 10° N 23:12:49 21° NNE 23:12:49 21° NNE
BREEZE-M DEB (TANK) 4.3 23:04:44 10° WNW 23:17:39 49° N 23:17:39 49° N
